Weather in Krym

Russia / Bryansk Oblast     52°49′33″N   32°27′47″E
temp.,
°C
wind,
m/s
gust,
m/s
humid.,
%
clouds,
%
prec.,
mm/h
press.,
hPa
HPBL,
m
20 may, fri
fri2000:00+8wnw4780100 0.0 1018111
03:00+8nw358117 0.0 101861
06:00+8nw238682 0.0 101855
09:00+13nnw227199 0.0 1018504
12:00+16w2263100 0.0 10171183
15:00+15w4479100 0.9 1016627
18:00+12nw2296100 2.7 101680
21:00+11ese3698100 4.3 1014251
21 may, sat
sat2100:00+10se61197100 1.1 1011434
03:00+10se51098100 8.7 1009507
06:00+9ese71097100 0.5 1007420
09:00+9se61097100 1.3 1007349
12:00+10ese5897100 0.2 1007399
15:00+10ese5796100 0.2 1005342
18:00+10se5998100 1.9 1003287
21:00+10se61198100 3.3 1000242
22 may, sun
sun2200:00+10w91497100 1.1 997573
03:00+10w9149494 1.4 998939
06:00+8w71396100 0.6 997732
09:00+6n5895100 2.8 998570
12:00+6n71195100 0.2 1000940
15:00+7ne7138852 0.4 10031070
18:00+10nne61077100 0.4 10051100
21:00+7n338317 0.4 100739
23 may, mon
mon2300:00+4n358576 0.0 100865
03:00+3n34855 0.0 101057
06:00+4n248219 0.0 101069
09:00+10nnw236116 0.0 1011441
12:00+13nnw454991 0.1 10102202
15:00+13nnw455761 0.4 10101476
18:00+13nnw565812 0.2 10101196
21:00+8nnw47775 0.2 1012108
24 may, tue
tue2400:00+5nw33731 0.0 101340
03:00+4nw35795 0.0 101470
06:00+4nnw36875 0.0 1014129
09:00+11n456226 0.0 1015480
12:00+14n34460 0.0 10151302
15:00+16nnw33465 0.0 10151488
18:00+16nnw34575 0.0 10161500
21:00+11wnw22760 0.0 101711